When you browse on this site, cookies collect data to enhance your experience and personalize the content and advertising you see.
Visit our Privacy Policy to learn more. By continuing to use the site, you agree to this use of cookies and data.

Stündliche Wetter Hobart

Heute, 4 Juli, Samstag

Zeit Temperatur Niederschläge Wind Luftdruck Luftfeuchtigkeit
00:00 +4°C° 0 mm 3 m/S 747 mmHg 90%
01:00 +4°C° 0 mm 3 m/S 747 mmHg 89%
02:00 +3°C° 0 mm 3 m/S 747 mmHg 89%
03:00 +3°C° 0 mm 3 m/S 747 mmHg 89%
04:00 +4°C° 0 mm 2 m/S 746 mmHg 89%
05:00 +3°C° 0.1 mm 3 m/S 746 mmHg 89%
06:00 +4°C° 0.1 mm 3 m/S 746 mmHg 89%
07:00 +4°C° 0.1 mm 3 m/S 746 mmHg 89%
08:00 +5°C° 0.4 mm 3 m/S 746 mmHg 91%
09:00 +5°C° 0.4 mm 3 m/S 746 mmHg 92%
10:00 +8°C° 0 mm 3 m/S 746 mmHg 92%
11:00 +8°C° 0.1 mm 3 m/S 746 mmHg 91%
12:00 +8°C° 0.1 mm 4 m/S 746 mmHg 90%
13:00 +10°C° 0.1 mm 4 m/S 745 mmHg 89%
14:00 +10°C° 0.1 mm 4 m/S 746 mmHg 89%
15:00 +10°C° 0.1 mm 4 m/S 746 mmHg 90%
16:00 +8°C° 0 mm 5 m/S 746 mmHg 90%
17:00 +8°C° 0 mm 5 m/S 747 mmHg 90%
18:00 +8°C° 0 mm 5 m/S 747 mmHg 89%
19:00 +8°C° 0 mm 5 m/S 747 mmHg 89%
20:00 +7°C° 0 mm 5 m/S 747 mmHg 89%
21:00 +7°C° 0 mm 4 m/S 748 mmHg 89%
22:00 +7°C° 0 mm 4 m/S 748 mmHg 89%
23:00 +7°C° 0 mm 4 m/S 748 mmHg 89%

Morgen, 5 Juli, Sonntag

Zeit Temperatur Niederschläge Wind Luftdruck Luftfeuchtigkeit
00:00 +8°C° 0 mm 3 m/S 748 mmHg 89%
01:00 +8°C° 0 mm 3 m/S 748 mmHg 89%
02:00 +8°C° 0 mm 3 m/S 748 mmHg 89%
03:00 +8°C° 0 mm 3 m/S 748 mmHg 90%
04:00 +8°C° 0 mm 3 m/S 749 mmHg 90%
05:00 +8°C° 0 mm 3 m/S 749 mmHg 90%
06:00 +8°C° 0 mm 3 m/S 749 mmHg 90%
07:00 +8°C° 0 mm 3 m/S 750 mmHg 90%
08:00 +9°C° 0 mm 3 m/S 750 mmHg 90%
09:00 +9°C° 0 mm 3 m/S 750 mmHg 89%
10:00 +9°C° 0 mm 3 m/S 750 mmHg 88%
11:00 +10°C° 0.1 mm 3 m/S 751 mmHg 87%
12:00 +10°C° 0.1 mm 3 m/S 751 mmHg 86%
13:00 +12°C° 0.1 mm 2 m/S 751 mmHg 85%
14:00 +10°C° 0.1 mm 3 m/S 751 mmHg 85%
15:00 +10°C° 0.1 mm 3 m/S 751 mmHg 85%
16:00 +10°C° 0.1 mm 3 m/S 751 mmHg 84%
17:00 +9°C° 0 mm 3 m/S 752 mmHg 86%
18:00 +9°C° 0 mm 3 m/S 752 mmHg 87%
19:00 +7°C° 0 mm 4 m/S 752 mmHg 89%
20:00 +8°C° 0 mm 3 m/S 753 mmHg 88%
21:00 +7°C° 0 mm 3 m/S 753 mmHg 88%
22:00 +7°C° 0 mm 3 m/S 754 mmHg 88%
23:00 +7°C° 0 mm 3 m/S 754 mmHg 88%

übermorgen, 6 Juli, Montag

Zeit Temperatur Niederschläge Wind Luftdruck Luftfeuchtigkeit
00:00 +5°C° 0 mm 3 m/S 754 mmHg 89%
01:00 +5°C° 0 mm 3 m/S 754 mmHg 89%
02:00 +5°C° 0 mm 3 m/S 754 mmHg 89%
03:00 +6°C° 0 mm 2 m/S 753 mmHg 89%
04:00 +6°C° 0 mm 2 m/S 753 mmHg 90%
05:00 +6°C° 0 mm 2 m/S 754 mmHg 91%
06:00 +6°C° 0 mm 2 m/S 754 mmHg 92%
07:00 +6°C° 0 mm 2 m/S 754 mmHg 93%
08:00 +7°C° 0 mm 3 m/S 754 mmHg 89%
09:00 +8°C° 0 mm 3 m/S 754 mmHg 85%
10:00 +9°C° 0 mm 3 m/S 754 mmHg 80%
11:00 +10°C° 0 mm 3 m/S 754 mmHg 77%
12:00 +10°C° 0 mm 4 m/S 754 mmHg 74%
13:00 +11°C° 0 mm 4 m/S 753 mmHg 71%
14:00 +10°C° 0.2 mm 4 m/S 753 mmHg 76%
15:00 +10°C° 0.2 mm 4 m/S 753 mmHg 81%
16:00 +9°C° 0.2 mm 3 m/S 753 mmHg 85%
17:00 +8°C° 0.2 mm 4 m/S 754 mmHg 86%
18:00 +7°C° 0.2 mm 4 m/S 755 mmHg 86%
19:00 +6°C° 0.2 mm 5 m/S 756 mmHg 87%
20:00 +5°C° 0 mm 4 m/S 756 mmHg 86%
21:00 +4°C° 0 mm 4 m/S 757 mmHg 86%
22:00 +3°C° 0 mm 3 m/S 757 mmHg 85%
23:00 +3°C° 0 mm 3 m/S 757 mmHg 85%

7 Juli, Dienstag

Zeit Temperatur Niederschläge Wind Luftdruck Luftfeuchtigkeit
00:00 +2°C° 0 mm 3 m/S 758 mmHg 85%
01:00 +2°C° 0 mm 3 m/S 758 mmHg 85%
02:00 +2°C° 0 mm 3 m/S 758 mmHg 85%
03:00 +2°C° 0 mm 3 m/S 758 mmHg 86%
04:00 +2°C° 0 mm 3 m/S 758 mmHg 86%
05:00 +2°C° 0 mm 3 m/S 759 mmHg 86%
06:00 +2°C° 0 mm 3 m/S 759 mmHg 86%
07:00 +2°C° 0 mm 3 m/S 760 mmHg 86%
08:00 +4°C° 0 mm 2 m/S 760 mmHg 82%
09:00 +5°C° 0 mm 2 m/S 760 mmHg 79%
10:00 +6°C° 0 mm 2 m/S 761 mmHg 75%
11:00 +6°C° 0 mm 2 m/S 760 mmHg 71%
12:00 +7°C° 0 mm 2 m/S 760 mmHg 66%
13:00 +8°C° 0 mm 2 m/S 760 mmHg 61%
14:00 +8°C° 0 mm 2 m/S 760 mmHg 63%
15:00 +7°C° 0 mm 2 m/S 760 mmHg 66%
16:00 +7°C° 0 mm 2 m/S 759 mmHg 69%
17:00 +7°C° 0 mm 1 m/S 760 mmHg 74%
18:00 +6°C° 0 mm 1 m/S 760 mmHg 79%
19:00 +4°C° 0 mm 1 m/S 760 mmHg 84%
20:00 +4°C° 0 mm 1 m/S 760 mmHg 85%
21:00 +4°C° 0 mm 1 m/S 760 mmHg 86%
22:00 +4°C° 0 mm 1 m/S 760 mmHg 87%
23:00 +3°C° 0 mm 1 m/S 760 mmHg 88%

8 Juli, Mittwoch

Zeit Temperatur Niederschläge Wind Luftdruck Luftfeuchtigkeit
00:00 +3°C° 0 mm 1 m/S 760 mmHg 90%
01:00 +2°C° 0 mm 1 m/S 760 mmHg 91%
02:00 +2°C° 0 mm 1 m/S 759 mmHg 92%
03:00 +1°C° 0 mm 2 m/S 759 mmHg 92%
04:00 +1°C° 0 mm 2 m/S 759 mmHg 92%
05:00 +1°C° 0 mm 2 m/S 759 mmHg 92%
06:00 -1°C° 0 mm 2 m/S 759 mmHg 92%
07:00 -1°C° 0 mm 2 m/S 759 mmHg 92%
08:00 +2°C° 0 mm 2 m/S 759 mmHg 86%
09:00 +4°C° 0 mm 1 m/S 759 mmHg 80%
10:00 +5°C° 0 mm 1 m/S 759 mmHg 73%
11:00 +6°C° 0 mm 1 m/S 758 mmHg 67%
12:00 +8°C° 0 mm 1 m/S 758 mmHg 61%
13:00 +9°C° 0 mm 1 m/S 757 mmHg 56%
14:00 +9°C° 0 mm 1 m/S 757 mmHg 59%
15:00 +8°C° 0 mm 1 m/S 757 mmHg 63%
16:00 +8°C° 0 mm 1 m/S 756 mmHg 67%
17:00 +6°C° 0 mm 1 m/S 756 mmHg 72%
18:00 +5°C° 0 mm 1 m/S 756 mmHg 78%
19:00 +4°C° 0 mm 1 m/S 756 mmHg 83%
20:00 +4°C° 0 mm 1 m/S 756 mmHg 84%
21:00 +2°C° 0 mm 2 m/S 756 mmHg 86%
22:00 +2°C° 0 mm 2 m/S 756 mmHg 87%
23:00 +2°C° 0 mm 2 m/S 755 mmHg 88%

9 Juli, Donnerstag

Zeit Temperatur Niederschläge Wind Luftdruck Luftfeuchtigkeit
00:00 +2°C° 0 mm 2 m/S 755 mmHg 90%
01:00 +2°C° 0 mm 2 m/S 755 mmHg 91%
02:00 +2°C° 0 mm 2 m/S 755 mmHg 92%
03:00 +2°C° 0 mm 2 m/S 754 mmHg 92%
04:00 +2°C° 0 mm 2 m/S 754 mmHg 93%
05:00 +2°C° 0 mm 2 m/S 754 mmHg 92%
06:00 +2°C° 0 mm 2 m/S 754 mmHg 92%
07:00 +3°C° 0 mm 2 m/S 754 mmHg 91%
08:00 +4°C° 0 mm 2 m/S 754 mmHg 87%
09:00 +5°C° 0 mm 2 m/S 753 mmHg 82%
10:00 +7°C° 0 mm 2 m/S 753 mmHg 77%
11:00 +9°C° 0 mm 2 m/S 753 mmHg 71%
12:00 +10°C° 0 mm 2 m/S 752 mmHg 65%
13:00 +12°C° 0 mm 3 m/S 752 mmHg 60%
14:00 +12°C° 0 mm 2 m/S 751 mmHg 63%
15:00 +12°C° 0 mm 2 m/S 751 mmHg 66%
16:00 +10°C° 0 mm 2 m/S 750 mmHg 69%
17:00 +9°C° 0 mm 2 m/S 750 mmHg 75%
18:00 +8°C° 0 mm 2 m/S 750 mmHg 81%
19:00 +5°C° 0 mm 3 m/S 750 mmHg 86%
20:00 +5°C° 0 mm 3 m/S 750 mmHg 87%
21:00 +4°C° 0 mm 3 m/S 750 mmHg 88%
22:00 +4°C° 0 mm 3 m/S 750 mmHg 89%
23:00 +4°C° 0 mm 3 m/S 749 mmHg 88%
Mehr zeigen